Location: Newark
(48.1500°N, 2.9667°W)
Time: 03:19:07
(UTC+00:00)

Altair - Pass Details

Date: 29 January 2020
Orbit: 1502 x 1682 km, 47.2° (Epoch: 16 February)

Event Time Altitude Azimuth Distance (km) Brightness Sun altitude
Rises 14:21:47 0° 291° (WNW) 4,940 10.3 18.9°
Reaches altitude 10° 14:25:19 10° 283° (WNW) 3,947 9.9 18.6°
Maximum altitude 14:34:05 35° 223° (SW) 2,449 10.3 17.9°
Drops below altitude 10° 14:42:42 10° 162° (SSE) 3,857 10.2 17.1°
Sets 14:46:07 0° 154° (SSE) 4,816 10.5 16.8°
